Home > Weather > Zittau > Past weeks

Flag for Germany Past Weather in Zittau, Saxony, Germany — Yesterday and Last 2 Weeks

Now
59 °F

Cool.


Feels Like: 59 °F
Forecast: 49 / 66 °F
Wind: 2 mph from Southeast

Location: Liberec

Current Time: Jul 2, 2016 at 6:04:39 AM

Latest Report: Jul 2, 2016 at 5:00 AM


Visibility: 13 mi

Pressure: 29.97 "Hg

Humidity: 89%

Dew Point: 56 °F

Location of ZittauLocation

Past Weather in Zittau — Graph

°F

Zittau Temperature Yesterday

Maximum temperature yesterday: 78 °F (at 3:00 PM)
Minimum temperature yesterday: 59 °F (at 12:00 AM)
Average temperature yesterday: 69 °F

High & Low Weather Summary for the Past Weeks

 TemperatureHumidityPressure
High87 °F (Jun 24, 4:00 PM)99% (Jun 19, 5:00 AM)30.30 "Hg (Jun 19, 5:00 AM)
Low46 °F (Jun 19, 5:00 AM)32% (Jun 24, 4:00 PM)29.44 "Hg (Jun 17, 5:00 AM)
Average64 °F73%30.04 "Hg
* Reported Jun 17 4:00 AM — Jul 2 4:00 AM, Zittau, Weather by CustomWeather, © 2016

Note: Actual official high and low records may vary slightly from our data, if they occured in-between our weather recording intervals... More about our weather records

Advertising

Zittau Weather History for the Previous 24 Hours

Scroll right to see more
 ConditionsComfort  
Time TempWeatherWind HumidityBarometerVisibility
4:00 AM
Sat, Jul 2
59 °FCool.2 mph87%29.97 "Hg12 mi
3:00 AM61 °FCool.2 mph86%29.98 "Hg12 mi
2:00 AM61 °FCool.1 mph86%29.99 "Hg12 mi
1:00 AM61 °FCool.1 mph81%30.00 "Hg12 mi
12:00 AM62 °FMild.1 mph83%30.00 "Hg12 mi
11:00 PM
Fri, Jul 1
63 °FMild.1 mph77%30.00 "Hg12 mi
10:00 PM68 °FPassing clouds.2 mph67%29.99 "Hg25 mi
9:00 PM71 °FScattered clouds.1 mph62%29.97 "Hg31 mi
8:00 PM74 °FScattered clouds.2 mph52%29.96 "Hg31 mi
7:00 PM76 °FMild.2 mph45%29.96 "Hg12 mi
6:00 PM77 °FMild.3 mph41%29.97 "Hg12 mi
5:00 PM76 °FPartly sunny.3 mph47%29.97 "Hg28 mi
4:00 PM75 °FOvercast.3 mph44%29.98 "Hg28 mi
3:00 PM78 °FPartly sunny.3 mph44%29.98 "Hg25 mi
2:00 PM76 °FScattered clouds.2 mph46%30.00 "Hg25 mi
1:00 PM75 °FPartly sunny.3 mph48%30.01 "Hg25 mi
12:00 PM73 °FPartly sunny.2 mph50%30.02 "Hg25 mi
11:00 AM72 °FPartly sunny.3 mph51%30.03 "Hg25 mi
10:00 AM69 °FPartly sunny.1 mph63%30.03 "Hg25 mi
9:00 AM67 °FPartly sunny.2 mph64%30.03 "Hg22 mi
8:00 AM64 °FPartly sunny.1 mph86%30.04 "Hg19 mi
7:00 AM62 °FCool.2 mph92%30.03 "Hg12 mi
6:00 AM62 °FRain. Cloudy.2 mph87%30.03 "Hg6 mi
Weather by CustomWeather, © 2016

See weather overviewHow to use our weather pages